Ahmedabad, India

1:16 AM IST on August 26, 2016 (GMT +0530)
Ahmedabad

Weather History for VAAH - February, 2013

Change the Weather History Date:

Tuesday, February 26, 2013

  Actual Average Record
Temperature  
Mean Temperature 79 °F -  
Max Temperature 94 °F 92 °F 96 °F (2005)
Min Temperature 64 °F 66 °F 51 °F (1998)
Cooling Degree Days 14    
Growing Degree Days 29 (Base 50)    
Moisture  
Dew Point 49 °F    
Average Humidity 37    
Maximum Humidity 59    
Minimum Humidity 15    
Precipitation  
Precipitation 0.00 in 0.00 in - ()
Sea Level Pressure  
Sea Level Pressure 29.90 in    
Wind  
Wind Speed 5 mph ()    
Max Wind Speed 10 mph    
Max Gust Speed -    
Visibility 2.4 miles    
Events      
Averages and records for this station are not official NWS values.
T = Trace of Precipitation, MM = Missing Value Source: Averaged Metar Reports

Daily Weather History Graph

Daily Weather History Graph

Search for Another Location

Airport or City:

Trip Planner

Search our weather history database for the weather conditions in past years. The results will help you decide how hot, cold, wet, or windy it might be!

Date:

Astronomy

Feb. 26, 2013 Rise Set
Actual Time 7:03 AM IST 6:41 PM IST
Civil Twilight 6:41 AM IST 7:04 PM IST
Nautical Twilight 6:14 AM IST 7:30 PM IST
Astronomical Twilight 5:48 AM IST 7:56 PM IST
Moon 7:17 PM IST (2/26) 7:00 AM IST (2/26)
Length of Visible Light 12h 22m
Length of Day
11h 37m
Full, 100% of the Moon is Illuminated
Feb 26
Full
Mar 5
Last Quarter
Mar 12
New
Mar 19
First Quarter
Mar 27
Full

Hourly Weather History & Observations

Time (IST) Temp. Heat Index Dew Point Humidity Pressure Visibility Wind Dir Wind Speed Gust Speed Precip Events Conditions
12:10 AM 68.0 °F - 50.0 °F 52% 29.95 in 2.5 mi NE 4.6 mph - N/A   Smoke
12:40 AM 68.0 °F - 48.2 °F 49% 29.92 in 2.5 mi ENE 4.6 mph - N/A   Smoke
1:40 AM 66.2 °F - 48.2 °F 52% 29.92 in 2.5 mi NNE 3.5 mph - N/A   Smoke
2:10 AM 64.4 °F - 48.2 °F 56% 29.92 in 2.5 mi NE 3.5 mph - N/A   Smoke
2:30 AM 67 °F - 52 °F 49% 29.94 in 2 mi NNE 3.5 mph - -   Haze
2:40 AM 64.4 °F - 48.2 °F 56% 29.92 in 2.5 mi NE 3.5 mph - N/A   Smoke
3:10 AM 64.4 °F - 48.2 °F 56% 29.89 in 2.5 mi NE 4.6 mph - N/A   Smoke
4:10 AM 62.6 °F - 48.2 °F 59% 29.89 in 2.5 mi NE 3.5 mph - N/A   Smoke
4:40 AM 64.4 °F - 46.4 °F 52% 29.89 in 2.5 mi NE 4.6 mph - N/A   Smoke
5:10 AM 62.6 °F - 48.2 °F 59% 29.89 in 2.5 mi NNE 3.5 mph - N/A   Smoke
5:30 AM 66 °F - 51 °F 49% 29.89 in 2 mi NE 4.6 mph - -   Haze
5:40 AM 62.6 °F - 46.4 °F 55% 29.89 in 2.5 mi ENE 4.6 mph - N/A   Smoke
6:10 AM 64.4 °F - 46.4 °F 52% 29.89 in 2.5 mi ENE 5.8 mph - N/A   Smoke
6:40 AM 66.2 °F - 44.6 °F 46% 29.92 in 2.2 mi East 5.8 mph - N/A   Smoke
7:40 AM 68.0 °F - 46.4 °F 46% 29.95 in 1.9 mi East 5.8 mph - N/A   Smoke
8:10 AM 68.0 °F - 48.2 °F 49% 29.95 in 1.9 mi East 4.6 mph - N/A   Smoke
8:30 AM 71 °F - 51 °F 38% 29.96 in 2 mi East 3.5 mph - -  
8:40 AM 71.6 °F - 48.2 °F 43% 29.95 in 1.9 mi ESE 4.6 mph - N/A   Smoke
9:10 AM 73.4 °F - 50.0 °F 44% 29.95 in 2.2 mi ESE 5.8 mph - N/A   Smoke
9:40 AM 77.0 °F - 51.8 °F 41% 29.95 in 2.5 mi SE 6.9 mph - N/A   Smoke
10:10 AM 78.8 °F - 53.6 °F 42% 29.95 in 2.5 mi SE 6.9 mph - N/A   Smoke
10:40 AM 80.6 °F 80.5 °F 55.4 °F 42% 29.95 in 2.2 mi SSE 5.8 mph - N/A   Smoke
11:30 AM 84 °F - 57 °F 29% 29.97 in 2 mi SE 5.8 mph - -   Smoke
11:40 AM 84.2 °F 83.0 °F 55.4 °F 37% 29.95 in 1.9 mi South 5.8 mph - N/A   Smoke
12:10 PM 86.0 °F 84.2 °F 53.6 °F 33% 29.92 in 1.9 mi South 6.9 mph - N/A   Smoke
12:40 PM 87.8 °F - 51.8 °F 29% 29.92 in 1.9 mi South 6.9 mph - N/A   Smoke
1:40 PM 91.4 °F 89.1 °F 53.6 °F 28% 29.86 in 2.5 mi SSW 9.2 mph - N/A   Smoke
2:10 PM 91.4 °F 89.1 °F 53.6 °F 28% 29.86 in 2.5 mi SSW 10.4 mph - N/A   Smoke
2:30 PM 91 °F - 53 °F 18% 29.90 in 2 mi South 6.9 mph - -  
2:40 PM 91.4 °F - 48.2 °F 23% 29.86 in 2.5 mi SSW 10.4 mph - N/A   Smoke
3:40 PM 93.2 °F - 46.4 °F 20% 29.83 in 3.1 mi SSW 9.2 mph - N/A   Smoke
4:10 PM 93.2 °F - 46.4 °F 20% 29.80 in 3.1 mi SW 8.1 mph - N/A   Smoke
4:40 PM 93.2 °F - 46.4 °F 20% 29.80 in 3.1 mi SSW 8.1 mph - N/A   Smoke
5:10 PM 93.2 °F - 46.4 °F 20% 29.80 in 3.1 mi SSW 5.8 mph - N/A   Smoke
5:30 PM 91 °F - 49 °F 15% 29.84 in 2 mi South 5.8 mph - -  
5:40 PM 91.4 °F - 50.0 °F 24% 29.80 in 3.1 mi SW 8.1 mph - N/A   Smoke
6:10 PM 89.6 °F - 50.0 °F 26% 29.83 in 3.1 mi SSW 5.8 mph - N/A   Smoke
6:40 PM 87.8 °F - 48.2 °F 25% 29.83 in 2.8 mi SSW 6.9 mph - N/A   Smoke
7:10 PM 86.0 °F - 44.6 °F 23% 29.83 in 2.5 mi SSW 8.1 mph - N/A   Smoke
7:40 PM 84.2 °F - 44.6 °F 25% 29.86 in 2.5 mi SSW 3.5 mph - N/A   Smoke
8:10 PM 82.4 °F - 46.4 °F 28% 29.86 in 2.5 mi SSW 4.6 mph - N/A   Smoke
8:30 PM 79 °F - 51 °F 27% 29.91 in 2 mi WSW 5.8 mph - -  
8:40 PM 77.0 °F - 46.4 °F 34% 29.89 in 2.5 mi SW 5.8 mph - N/A   Smoke
9:10 PM 77.0 °F - 48.2 °F 36% 29.89 in 2.5 mi WSW 5.8 mph - N/A   Smoke
9:40 PM 77.0 °F - 48.2 °F 36% 29.89 in 2.5 mi SW 3.5 mph - N/A   Smoke
10:10 PM 77.0 °F - 46.4 °F 34% 29.92 in 2.5 mi WSW 3.5 mph - N/A   Smoke
10:40 PM 77.0 °F - 44.6 °F 32% 29.92 in 2.5 mi West 3.5 mph - N/A   Smoke
11:10 PM 75.2 °F - 44.6 °F 34% 29.92 in 2.5 mi WNW 3.5 mph - N/A   Smoke
11:30 PM 71 °F - 50 °F 37% 29.94 in 2 mi West 3.5 mph - -